This demonstration page uses our WeatherBlox Daily Observations layout. Learn more.

38.89511, -77.03637

Hourly Observations for February 1, 2015

Temp ( °F °C ) Dew Point ( °F °C ) Humidity (%) Winds ( mph kmh ) Pressure ( in mb ) Visibility ( mi km ) Precip ( " mm )
12:52 am 00:52 Mostly Cloudy 30 -1.1 17 -8.3 58 58 Calm 30.28 1026 10 16.0934 0 0
1:52 am 01:52 Mostly Cloudy 28 -2.2 17 -8.3 63 63 Calm 30.29 1026 10 16.0934 0 0
2:52 am 02:52 Cloudy 27 -2.8 19 -7.2 72 72 S 5 7 30.29 1026 10 16.0934 0 0
3:52 am 03:52 Cloudy 27 -2.8 18 -7.8 69 69 SSW 3 6 30.28 1026 10 16.0934 0 0
4:52 am 04:52 Cloudy 29 -1.7 20 -6.7 69 69 S 6 9 30.27 1025 10 16.0934 0 0
5:52 am 05:52 Cloudy 29 -1.7 19 -7.2 66 66 SW 3 6 30.28 1026 10 16.0934 0 0
6:52 am 06:52 Cloudy 30 -1.1 19 -7.2 64 64 SSW 3 6 30.29 1026 10 16.0934 0 0
7:52 am 07:52 Cloudy 32 0 18 -7.8 56 56 S 3 6 30.3 1026 9 14.48406 0 0
8:52 am 08:52 Cloudy 34 1.1 17 -8.3 50 50 S 3 6 30.29 1026 10 16.0934 0 0
9:52 am 09:52 Cloudy 35 1.7 20 -6.7 54 54 S 6 9 30.28 1025 10 16.0934 0 0
10:52 am 10:52 Cloudy 36 2.2 20 -6.7 52 52 S 6 9 30.27 1025 10 16.0934 0 0
11:52 am 11:52 Cloudy 37 2.8 18 -7.8 46 46 S 7 11 30.24 1024 10 16.0934 0 0
12:52 pm 12:52 Cloudy 39 3.9 18 -7.8 43 43 SSE 6 9 30.19 1023 10 16.0934 0 0
1:52 pm 13:52 Cloudy 41 5 16 -8.9 36 36 S 6 9 30.16 1021 10 16.0934 0 0
2:52 pm 14:52 Cloudy 42 5.6 16 -8.9 35 35 S 8 13 30.12 1020 10 16.0934 0 0
3:52 pm 15:52 Cloudy 42 5.6 19 -7.2 40 40 S 5 7 30.11 1020 10 16.0934 0 0
4:52 pm 16:52 Cloudy 42 5.6 19 -7.2 40 40 SE 3 6 30.08 1019 10 16.0934 0 0
5:52 pm 17:52 Cloudy 42 5.6 17 -8.3 36 36 SSE 5 7 30.07 1018 10 16.0934 0 0
6:52 pm 18:52 Clear 34 1 10 -12 38 38 Calm 30.3 1026 10 16.0934 0 0
7:52 pm 19:52 Cloudy 41 5 21 -6.1 45 45 SE 5 7 30 1016 10 16.0934 0 0
8:52 pm 20:52 Cloudy 40 4.4 24 -4.4 53 53 SE 5 7 29.98 1015 10 16.0934 0 0
9:22 pm 21:22 Cloudy with Light Rain 39 4 25 -4 56 56 ESE 3 6 29.94 1014 10 16.0934 0 0
9:52 pm 21:52 Cloudy with Light Rain 39 3.9 26 -3.3 60 60 Calm 29.94 1014 10 16.0934 0 0.0254
10:20 pm 22:20 Cloudy with Light Snow 37 3 27 -3 65 65 ESE 3 6 29.91 1013 6 9.65604 0 0
10:52 pm 22:52 Cloudy with Light Rain 38 3.3 29 -1.7 70 70 Calm 29.87 1012 7 11.26538 0.02 0.508
11:52 pm 23:52 Cloudy with Light Rain 38 3.3 31 -0.6 76 76 VRB 3 6 29.82 1010 10 16.0934 0.02 0.508

Powered by AerisWeather